GW0890 Weather Reports


time (UTC)temp
C
wind
direction
speed
KPH
gust
KPH
rain 1hr
cm
rain 24hr
cm
rain mn
cm
humidity
%
barometer
mb
20260504224504 24 20 8.0 19.3 0.00 0.03 0.03 50 1007.0
20260504223003 24 347 8.0 11.3 0.00 0.03 0.03 50 1007.3
20260504221501 25 22 9.7 25.7 0.00 0.03 0.03 48 1007.5
20260504220123 25 11 11.3 20.9 0.00 0.03 0.03 49 1007.4
20260504220001 25 31 9.7 20.9 0.00 0.03 0.03 49 1007.5
20260504214558 25 40 4.8 20.9 0.00 0.03 0.03 53 1007.5
20260504213100 24 32 11.3 25.7 0.00 0.03 0.03 51 1007.6
20260504211554 24 18 9.7 22.5 0.00 0.03 0.03 54 1007.6
20260504210048 23 309 6.4 14.5 0.00 0.03 0.03 56 1008.0
20260504204516 23 296 8.0 19.3 0.00 0.03 0.03 55 1008.2
20260504203013 23 23 9.7 29.0 0.00 0.03 0.03 54 1008.2
20260504201508 22 9 12.9 25.7 0.00 0.03 0.03 53 1008.4
20260504200005 22 55 16.1 35.4 0.00 0.03 0.03 54 1008.6
20260504194503 21 39 9.7 19.3 0.03 0.03 0.03 58 1008.7
20260504193002 20 22 9.7 17.7 0.03 0.03 0.03 64 1008.9
20260504191546 20 15 16.1 29.0 0.03 0.03 0.03 66 1009.0
20260504190031 18 55 8.0 14.5 0.03 0.03 0.03 70 1009.4
20260504184614 19 11 11.3 24.1 0.00 0.00 0.00 65 1009.5
20260504183107 21 52 16.1 24.1 0.00 0.00 0.00 57 1010.3
20260504181554 22 104 12.9 19.3 0.00 0.00 0.00 54 1009.7
20260504180052 21 55 8.0 24.1 0.00 0.00 0.00 55 1009.5
20260504174550 21 69 12.9 24.1 0.00 0.00 0.00 56 1009.3
20260504173049 20 33 8.0 32.2 0.00 0.00 0.00 60 1009.4
20260504171544 20 315 17.7 30.6 0.00 0.00 0.00 59 1009.4
20260504081506 6 201 0.0 8.0 0.00 0.00 0.00 90 1012.7
20260504050005 8 217 0.0 6.4 0.00 0.00 0.00 89 1014.1
20260504044510 8 217 1.6 8.0 0.00 0.00 0.00 87 1014.3
20260504043032 8 217 0.0 3.2 0.00 0.00 0.00 86 1014.4
20260504041530 8 216 0.0 6.4 0.00 0.00 0.00 85 1014.3
20260504040026 9 215 0.0 3.2 0.00 0.00 0.00 83 1014.6
20260504034534 9 216 3.2 6.4 0.00 0.00 0.00 81 1014.5
20260504033023 9 202 3.2 8.0 0.00 0.00 0.00 76 1014.3
20260504031523 9 217 3.2 11.3 0.00 0.00 0.00 75 1014.5
20260504030037 9 222 0.0 3.2 0.00 0.00 0.00 74 1014.5
20260504024520 10 222 0.0 4.8 0.00 0.00 0.00 74 1014.4
20260504023025 10 222 0.0 0.0 0.00 0.00 0.00 72 1014.4
20260504021518 10 222 0.0 0.0 0.00 0.00 0.00 70 1014.1
20260504020015 10 221 1.6 8.0 0.00 0.00 0.00 70 1013.9
20260504014532 10 218 1.6 6.4 0.00 0.00 0.00 69 1013.9
20260504013014 10 217 0.0 6.4 0.00 0.00 0.00 65 1013.8
20260504011515 10 218 0.0 6.4 0.00 0.00 0.00 66 1013.8
20260504010015 11 198 3.2 6.4 0.00 0.00 0.00 62 1013.9
20260504004512 12 119 1.6 6.4 0.00 0.00 0.00 59 1013.9
20260504003023 12 115 1.6 6.4 0.00 0.00 0.00 55 1013.8
20260504001510 13 101 3.2 8.0 0.00 0.00 0.00 51 1013.8
20260504000006 15 41 0.0 0.0 0.00 0.00 0.00 41 1013.9
20260503234515 16 41 0.0 3.2 0.00 0.00 0.00 39 1013.7
20260503233004 16 41 4.8 9.7 0.00 0.00 0.00 38 1013.8
20260503231503 16 44 4.8 11.3 0.00 0.00 0.00 38 1014.1
20260503230103 16 44 6.4 11.3 0.00 0.00 0.00 36 1014.2